Tracking 30696 objects as of 16-Jun-2025
HD Live streaming from Space Station
objects crossing your sky now

STARLINK-31149

Track STARLINK-31149 now!
10-day predictions
STARLINK-31149 is classified as:


NORAD ID: 58863
Int'l Code: 2024-019L
Perigee: 489.5 km
Apogee: 491.0 km
Inclination: 43.0 °
Period: 94.3 minutes
Semi major axis: 6861 km
RCS: Unknown
Launch date: January 29, 2024
Source: United States (US)
Launch site: AIR FORCE EASTERN TEST RANGE (AFETR)
Your satellite tracking list
Your tracking list is empty




NASA's NSSDC Master Catalog

Two Line Element Set (TLE):
1 58863U 24019L   25166.75695768 -.00000932  00000-0 -24363-4 0  9997
2 58863  42.9995 315.9796 0001087 269.8476  90.2251 15.27569964 78264
Source of the keplerian elements: AFSPC